Lapse_Rate
6.1 5.9 5.7 5.6 5.8 5.9 5.9 5.8 5.8 6.0 5.9 5.8 6.0 6.0 6.1 6.0 5.9 5.9 6.1 6.2 6.3 6.3 6.2 6.1 6.1 6.2 6.2 6.3 6.3 6.2 6.3 6.3 6.3 6.3 6.3 6.4 6.3 6.2 6.2 6.1 6.1 6.1 6.2
5.9 5.9 5.8 5.6 5.7 5.9 5.9 5.8 5.7 5.9 6.0 6.1 6.2 6.1 6.2 6.0 6.0 5.9 6.0 6.3 6.5 5.9 5.5 5.6 5.9 5.8 6.1 6.3 6.3 6.3 6.2 6.3 6.4 6.2 6.2 6.2 6.2 6.2 6.2 6.2 6.1 6.1 6.3
6.0 5.7 5.8 5.7 5.9 6.2 5.9 5.9 5.9 5.9 6.1 6.3 6.1 6.0 6.0 6.0 6.0 5.9 6.0 6.2 6.0 6.0 5.7 5.7 5.5 5.7 5.8 6.0 6.2 6.2 6.1 6.1 6.2 6.2 6.1 6.1 6.1 6.0 6.0 6.1 6.1 6.1 6.1
6.0 5.9 5.7 5.8 6.1 6.1 6.2 6.0 6.0 5.8 5.9 6.0 6.0 5.8 5.9 6.0 6.0 5.8 5.9 6.1 6.0 5.9 5.7 5.7 5.5 5.9 5.8 5.8 5.9 6.0 6.1 6.0 6.1 6.0 5.9 6.0 6.1 6.1 5.9 6.0 6.1 6.1 6.1
5.9 6.1 6.0 6.0 6.1 6.2 6.2 6.1 6.1 5.9 5.9 5.9 6.0 6.0 5.9 5.9 5.5 5.5 5.7 5.9 5.7 5.7 5.6 5.7 5.8 5.8 5.9 5.7 5.6 5.7 5.9 5.8 5.8 6.0 6.1 6.0 6.0 6.1 6.0 5.8 5.9 6.1 6.1
5.8 5.9 6.2 6.1 6.1 6.2 6.3 6.2 6.0 5.9 5.9 5.9 5.9 6.0 5.9 5.8 5.5 5.5 5.6 5.7 5.6 5.6 5.7 5.5 5.5 5.6 5.7 5.7 5.4 5.5 5.6 5.5 5.6 5.7 5.8 6.0 6.2 6.1 6.1 5.9 5.8 5.9 5.9
5.8 5.9 6.0 6.2 6.1 6.2 6.2 6.2 6.1 6.0 6.0 5.9 5.9 6.0 5.7 5.8 5.7 5.5 5.5 5.5 5.6 5.6 5.6 5.7 5.6 5.5 5.5 5.5 5.3 5.3 5.3 5.3 5.5 5.6 5.7 5.8 5.8 5.7 5.9 6.0 5.9 6.0 6.0
5.9 5.9 5.9 6.0 5.9 5.9 5.9 6.0 6.0 6.0 5.8 5.6 5.6 5.6 5.5 5.4 5.5 5.5 5.4 5.5 5.4 5.5 5.5 5.7 5.5 5.4 5.3 5.4 5.4 5.2 5.2 5.4 5.3 5.4 5.5 5.6 5.5 5.5 5.8 5.8 5.8 5.9 5.9
5.8 5.9 5.9 5.9 5.8 5.8 5.8 5.7 5.9 5.8 5.6 5.6 5.5 5.3 5.1 5.2 5.1 5.1 5.3 5.3 5.2 5.3 5.4 5.5 5.7 5.4 5.4 5.4 5.2 5.2 5.1 5.4 5.5 5.3 5.4 5.5 5.3 5.4 5.6 5.8 5.8 5.8 5.7
6.0 5.9 6.0 6.1 6.0 6.0 5.8 5.8 5.8 5.6 5.7 5.6 5.4 5.1 5.0 5.0 4.9 4.8 4.9 5.1 5.1 5.3 5.3 5.3 5.6 5.6 5.4 5.4 5.1 5.3 5.3 5.1 5.2 5.3 5.5 5.5 5.2 5.1 5.5 5.8 5.8 5.8 5.8
6.1 6.1 6.0 6.0 6.0 5.8 5.8 5.8 5.8 5.5 5.4 5.3 5.3 4.9 4.8 4.9 4.9 4.7 4.8 4.8 4.9 5.2 5.5 5.5 5.7 5.5 5.3 5.3 5.1 5.3 5.4 5.3 5.3 5.4 5.4 5.6 5.4 5.3 5.5 6.0 5.9 5.9 5.9
6.2 6.2 6.1 5.9 5.9 5.6 5.6 5.6 5.5 5.4 5.2 5.1 5.2 5.0 4.9 4.9 5.0 5.0 4.9 4.9 5.0 5.3 5.4 5.5 5.3 5.5 5.3 5.2 5.3 5.4 5.3 5.3 5.3 5.3 5.4 5.3 5.3 5.6 5.5 6.0 6.0 6.0 6.0
6.0 6.2 6.1 6.0 6.0 5.7 5.4 5.3 5.4 5.3 5.4 5.2 5.2 5.1 5.0 5.2 5.3 5.1 5.0 4.9 5.1 5.4 5.4 5.4 5.4 5.5 5.5 5.4 5.3 5.3 5.4 5.3 5.3 5.3 5.2 5.2 5.4 5.6 5.7 6.0 6.0 6.2 6.1
6.2 6.0 5.8 5.8 6.1 6.0 5.7 5.4 5.2 5.3 5.5 5.5 5.3 5.4 5.3 5.4 5.5 5.3 5.1 5.1 5.2 5.4 5.6 5.3 5.5 5.4 5.4 5.5 5.3 5.3 5.4 5.4 5.2 5.3 5.1 5.0 5.1 5.4 5.6 6.4 6.4 6.2 6.0
5.9 5.8 5.9 5.8 5.9 6.0 5.7 5.7 5.3 5.6 5.4 5.4 5.6 5.4 5.5 5.4 5.6 5.5 5.3 5.3 5.3 5.5 5.4 5.3 5.5 5.5 5.4 5.4 5.4 5.3 5.3 5.4 5.3 5.1 5.1 5.0 5.1 5.2 5.7 5.6 5.9 6.0 6.0
5.6 5.6 5.8 5.7 5.7 5.9 6.2 5.8 5.6 5.5 5.5 5.4 5.5 5.6 5.6 5.5 5.7 5.6 5.5 5.4 5.3 5.1 5.3 5.5 5.5 5.4 5.2 5.1 5.4 5.4 5.4 5.4 5.5 5.3 5.2 5.2 5.0 5.0 5.5 5.6 5.8 6.0 6.0
5.2 5.2 5.4 5.4 5.3 5.6 5.9 5.8 5.7 5.6 5.6 5.6 5.6 5.5 5.7 5.6 5.6 5.7 5.7 5.6 5.5 5.1 5.3 5.3 5.4 5.5 5.5 5.3 5.3 5.5 5.5 5.5 5.4 5.5 5.4 5.3 5.1 5.2 5.3 5.6 5.9 6.0 5.9
5.3 5.3 5.2 5.2 5.5 5.5 5.3 5.6 5.6 5.7 5.5 5.6 5.5 5.4 5.5 5.6 5.5 5.5 5.6 5.6 5.5 5.1 5.3 5.5 5.4 5.5 5.6 5.4 5.6 5.8 5.7 5.6 5.5 5.6 5.7 5.5 5.5 5.4 5.5 5.7 5.9 6.1 6.1
5.5 5.4 5.3 5.1 5.5 5.1 5.3 5.6 5.6 5.7 5.9 5.7 5.7 5.5 5.6 5.4 5.5 5.7 5.6 5.5 5.5 5.3 5.2 5.4 5.5 5.5 5.7 5.6 5.7 5.8 5.8 5.8 5.7 5.7 5.7 5.7 5.7 5.7 5.8 6.0 6.0 6.1 6.2
5.6 5.6 5.3 5.4 5.2 4.9 5.0 5.6 5.8 6.0 5.9 5.9 5.7 5.7 5.5 5.6 5.5 5.7 5.7 5.5 5.5 5.4 5.1 5.2 5.5 5.4 5.4 5.5 5.7 5.7 5.7 5.7 5.8 5.9 5.8 5.7 5.6 5.7 5.8 6.0 6.0 6.1 6.3
5.3 5.2 5.4 5.2 5.1 5.0 4.8 5.3 5.7 5.7 5.9 6.0 5.8 5.8 5.6 5.6 5.5 5.6 5.6 5.3 5.4 5.3 5.0 5.2 5.3 5.4 5.4 5.5 5.7 5.6 5.7 5.8 5.8 5.8 6.0 5.9 5.6 5.6 5.7 5.7 5.8 5.9 6.1
5.0 4.9 5.3 5.4 4.8 5.3 4.4 5.1 5.4 5.7 5.7 5.7 5.7 5.8 5.6 5.5 5.5 5.5 5.3 5.2 5.2 5.2 5.3 5.3 5.6 5.6 5.3 5.5 5.5 5.4 5.6 5.6 5.7 5.9 6.0 6.0 5.7 5.7 5.8 5.8 5.8 5.8 5.9
5.3 5.1 4.9 4.8 4.8 5.0 4.9 5.1 5.5 5.7 5.7 5.7 5.7 5.7 5.6 5.6 5.3 5.5 5.4 5.2 5.0 5.0 5.2 5.4 5.5 5.5 5.4 5.5 5.4 5.4 5.4 5.6 5.8 5.8 5.8 5.8 5.9 5.9 5.8 5.8 5.8 5.8 5.8
5.5 5.3 5.1 5.0 5.1 5.0 5.2 5.4 5.5 5.7 5.7 5.8 5.7 5.8 5.7 5.5 5.4 5.3 5.5 5.0 5.0 5.0 5.1 5.3 5.5 5.5 5.5 5.5 5.5 5.6 5.4 5.5 5.6 5.8 5.8 5.8 6.0 5.8 5.8 5.9 5.9 5.9 5.9
5.6 5.5 5.3 5.5 5.4 5.7 5.8 5.6 5.6 5.6 5.7 5.8 6.0 6.0 6.0 5.7 5.4 5.2 5.2 5.0 5.1 5.1 5.2 5.3 5.4 5.4 5.6 5.5 5.5 5.7 5.6 5.7 5.7 5.7 5.6 5.5 5.8 5.9 5.8 5.7 5.8 6.0 5.9
5.8 5.8 5.8 5.7 5.7 5.6 5.6 5.6 5.5 5.6 5.7 5.9 5.9 5.8 5.9 5.9 5.6 5.4 5.3 5.3 5.3 5.3 5.3 5.5 5.5 5.5 5.7 5.6 5.5 5.5 5.7 5.6 5.7 5.7 5.5 5.5 5.5 5.7 5.8 5.9 5.8 6.0 6.0
Wind_Speed
13 19 14 15 16 16 19 23 21 20 20 19 17 15 14 14 11 12 11 10 10 10 11 12 11 12 13 12 11 11 13 13 14 15 15 16 16 16 14 13 18 17 16
18 22 16 17 18 19 21 23 22 21 21 19 16 14 14 13 12 10 9 8 8 8 10 11 13 12 15 13 12 13 11 12 12 14 14 14 14 13 12 13 16 18 17
19 22 20 18 19 20 21 22 22 21 20 19 16 14 12 12 11 11 10 8 7 8 9 10 11 12 14 13 12 11 10 11 11 12 11 14 13 13 12 15 15 16 16
19 22 21 17 18 19 20 20 21 20 19 18 17 13 12 11 10 12 11 8 7 7 9 9 9 11 12 11 11 10 9 10 10 9 10 7 17 12 13 13 14 14 15
18 20 22 18 18 19 19 19 19 19 19 18 16 13 12 8 8 11 10 8 7 8 7 5 7 9 10 10 11 9 8 8 5 4 8 6 13 12 13 13 13 13 9
16 20 23 20 20 19 19 19 19 18 17 16 14 13 12 8 10 11 9 7 7 5 5 4 3 6 9 9 8 8 6 6 6 8 8 6 10 13 12 12 11 12 12
16 21 21 20 19 19 19 19 19 18 17 15 14 12 11 11 10 9 9 8 6 4 4 4 5 4 5 5 6 3 5 7 5 3 8 6 11 12 12 12 12 11 12
19 22 22 19 18 18 18 18 18 17 16 15 14 14 12 9 8 7 6 6 4 3 3 2 3 3 3 4 4 3 3 8 7 4 5 9 11 11 12 12 12 10 11
18 18 20 20 19 18 17 17 16 16 16 16 15 15 14 8 7 6 5 4 3 3 2 2 2 3 4 3 4 2 3 3 4 5 7 9 9 10 11 11 10 10 10
15 16 18 20 20 19 18 17 17 16 17 17 17 16 22 10 3 5 5 4 3 3 1 2 4 4 3 5 5 5 3 4 7 5 4 10 11 8 10 11 10 9 10
14 16 18 17 20 19 17 18 17 16 16 16 15 13 11 10 11 3 1 4 2 3 3 6 7 5 5 7 8 5 4 6 5 7 7 17 11 8 8 10 10 10 9
18 17 17 16 17 18 17 16 16 16 16 13 11 7 6 6 7 6 5 4 4 5 8 6 7 7 9 10 14 11 9 8 8 8 4 12 10 9 10 10 10 10 9
19 16 16 16 17 16 11 15 12 15 10 14 12 10 6 6 7 8 8 8 8 7 14 10 10 9 12 9 7 10 8 9 10 7 10 9 9 8 9 9 9 10 10
20 18 18 16 14 16 14 13 11 8 10 14 12 13 11 9 9 9 7 4 7 9 9 10 6 7 7 7 9 8 9 10 9 8 10 13 11 9 10 5 5 8 8
18 17 17 16 14 13 11 11 8 10 14 14 12 13 11 10 6 7 6 6 8 12 10 9 7 6 3 8 10 6 8 10 12 10 10 15 11 10 8 10 6 6 8
14 14 15 16 14 16 10 10 8 12 11 8 11 14 14 11 7 7 6 9 7 8 11 8 3 4 5 3 9 12 12 11 13 14 14 17 17 18 12 13 13 9 9
12 8 9 15 16 14 12 11 11 12 13 5 6 8 6 13 9 10 7 6 5 8 8 9 6 4 2 5 8 9 9 10 12 13 13 15 21 21 18 15 15 13 12
12 16 15 14 17 14 10 10 11 13 10 11 11 12 14 14 11 10 6 5 5 7 8 5 4 3 3 2 5 5 6 7 10 11 14 15 17 18 21 18 15 13 13
13 9 13 7 5 5 6 10 12 12 9 8 9 12 14 15 13 8 8 7 6 6 5 6 1 3 2 2 4 4 4 4 6 10 12 12 10 15 15 24 22 17 17
15 15 13 8 6 5 5 8 7 8 9 11 10 12 13 12 11 11 8 8 8 6 6 5 4 3 3 4 4 1 3 4 4 5 6 10 13 14 15 10 19 20 19
13 17 15 15 17 10 8 10 12 10 9 7 7 12 10 10 12 10 8 8 9 6 5 6 6 4 5 1 3 1 4 3 5 5 6 8 8 15 15 15 14 17 20
14 8 14 16 16 14 9 9 7 5 6 6 5 9 8 7 8 9 7 5 8 6 6 7 5 4 4 1 2 2 2 3 6 6 6 6 8 10 11 14 18 16 13
13 12 13 15 17 17 15 7 5 5 5 3 5 5 4 5 7 9 7 5 5 7 7 7 7 5 4 1 3 1 2 2 4 4 6 7 7 6 9 12 15 17 18
12 13 16 15 17 15 12 11 10 7 7 4 4 2 4 6 7 8 8 11 8 7 6 7 6 6 5 3 3 3 4 4 1 2 4 5 6 7 7 8 12 16 18
11 12 13 14 17 14 12 10 8 10 5 5 4 4 4 4 10 8 9 8 9 8 7 8 7 7 5 3 3 2 3 3 4 2 1 3 7 7 8 8 10 12 16
11 10 13 15 14 13 11 12 11 10 8 5 4 5 4 5 6 8 10 9 8 7 7 8 7 8 7 5 3 4 2 2 2 3 3 5 6 7 7 7 9 11 14
Wind_Direction
146 136 137 127 126 129 136 142 143 140 138 139 136 131 128 129 128 116 111 114 123 124 124 118 108 106 102 95 95 98 98 100 104 108 106 107 103 104 111 118 128 99 104
145 145 142 128 121 120 133 139 140 139 141 139 136 134 137 140 126 119 113 122 130 138 127 117 110 95 98 94 92 92 101 107 107 105 104 106 106 108 97 87 82 105 109
142 141 144 130 125 127 130 136 135 136 135 135 134 141 144 136 128 127 122 128 130 119 112 105 104 102 95 94 91 98 104 111 113 121 147 126 108 110 103 94 105 113 114
145 149 142 133 128 129 128 130 131 135 136 135 141 150 140 143 148 137 133 134 123 118 113 101 101 105 103 100 98 99 102 110 124 161 174 85 110 110 114 108 110 113 108
146 146 131 139 135 134 128 127 130 134 136 138 144 154 148 158 152 138 132 132 113 112 122 117 107 98 107 110 105 104 115 108 141 195 85 79 108 116 120 119 119 121 123
144 144 135 144 144 141 137 135 134 134 138 142 141 138 132 140 136 130 128 130 120 120 125 113 125 92 104 107 109 112 115 126 212 93 96 115 105 120 123 112 111 106 112
153 141 150 146 148 144 139 138 140 142 142 139 140 138 131 131 127 128 132 141 129 122 121 130 123 93 99 115 118 109 139 150 165 131 111 121 109 127 127 122 126 121 123
153 149 145 151 149 144 146 144 144 146 150 150 142 134 126 127 120 114 123 120 120 120 127 129 131 119 102 123 142 111 151 208 197 163 123 115 137 140 134 129 129 131 126
151 148 157 159 152 151 150 149 150 147 142 139 140 131 113 109 113 105 106 122 144 159 147 149 220 203 184 175 186 152 98 175 222 157 163 138 149 142 139 137 133 136 129
159 153 156 166 164 164 159 160 159 157 153 158 152 147 130 141 142 120 20 300 213 184 195 218 242 251 215 201 188 204 159 160 204 229 198 153 143 154 152 142 145 144 148
170 167 157 176 165 170 169 167 165 168 165 167 168 165 154 153 207 150 239 283 264 222 263 274 259 244 218 214 205 181 163 222 187 239 210 127 156 167 158 151 151 150 156
174 179 164 186 172 169 180 166 181 174 182 184 184 169 167 192 226 242 257 216 250 255 256 267 258 254 220 235 194 194 197 210 216 189 208 136 167 167 170 162 158 159 164
179 179 175 185 180 179 185 179 188 160 200 195 188 191 179 201 215 225 241 216 217 216 258 210 230 247 229 230 228 205 191 198 219 204 176 160 173 171 165 159 167 167 172
181 184 182 183 184 188 184 196 194 154 188 206 200 202 202 206 211 211 219 258 257 282 248 246 253 253 260 231 243 228 188 202 230 192 175 169 180 184 155 123 184 183 181
180 190 190 184 186 196 200 199 207 183 209 220 177 204 215 240 224 230 235 217 229 232 236 240 276 249 283 232 251 230 227 208 195 210 208 174 178 210 180 210 212 204 206
176 201 189 192 188 201 202 214 187 215 238 189 222 204 211 234 243 252 238 247 220 225 227 252 251 271 221 209 236 227 212 218 194 215 194 187 178 230 215 211 215 214 211
180 200 200 194 190 197 201 204 221 205 207 247 246 230 230 237 235 249 245 246 233 215 247 251 266 283 94 242 230 235 218 215 204 201 196 203 193 215 218 215 214 220 216
184 190 199 203 194 185 188 208 224 223 240 185 212 211 219 239 238 251 250 248 208 222 232 244 244 276 201 272 264 236 197 202 208 201 195 207 193 202 209 220 220 219 225
192 186 196 189 131 153 206 213 221 227 240 237 213 229 230 232 238 223 248 221 216 230 225 248 229 249 278 266 248 211 205 194 208 196 196 194 197 202 207 196 212 218 223
202 203 173 167 135 240 243 249 242 234 231 247 214 235 223 218 220 226 239 231 218 221 229 224 237 211 153 224 217 172 266 195 205 195 199 190 198 201 209 192 205 214 217
188 203 186 170 168 192 215 219 224 221 224 231 250 258 234 206 219 218 216 214 221 227 237 212 217 244 257 149 289 74 255 174 178 213 216 182 207 196 196 192 214 212 201
206 163 164 180 187 194 207 221 240 234 228 229 232 248 239 217 213 220 222 222 223 216 206 218 235 249 253 64 109 194 228 177 206 171 197 206 201 190 212 202 194 214 225
195 180 182 176 191 192 196 207 206 229 254 213 221 225 196 193 195 217 226 215 241 236 197 207 216 238 258 30 295 273 211 239 148 175 187 214 182 191 206 205 210 205 215
195 190 182 180 188 193 201 209 209 222 226 214 186 147 188 193 205 208 201 213 211 225 214 194 208 241 249 164 253 220 228 309 71 222 209 220 214 211 215 200 206 213 213
171 171 175 175 187 196 198 226 206 229 222 226 141 150 203 201 218 203 224 213 211 226 192 223 194 211 204 243 230 230 223 285 240 229 260 196 218 208 210 219 209 211 207
163 174 162 172 180 197 199 201 220 225 209 192 169 190 210 197 215 207 220 210 215 215 227 204 217 209 233 241 220 232 184 218 243 215 240 176 224 177 211 213 231 213 214